map of TKF home
Great Circle Mapper logo
TKF - Airport
Location
City:  Truckee, California, United States
Name:Truckee-Tahoe Airport
ICAO / IATA:KTRK / TKF
FAA:TRK

Details
Type:Airport (Airfield)
Use:Public/Civil
Latitude:3919'12"N (39.320042)
Longitude:12008'22"W (-120.139562)
Datum:WGS 1984
Elevation:5901 ft (1799 m)
Runways:2
Longest:7000 × 100 ft (2134 × 30.5 m), paved

Time
Time Zone:UTC-8 (DST-7)
Local Time:

Weather
METAR:KTRK 212055Z 24010G16KT 10SM FEW050 25/03 A3016 RMK NOSPECI
TAF:KTRK 212009Z 2120/2218 29010G20KT P6SM FEW050
FM212200 27010G20KT P6SM FEW050
FM220100 28009KT P6SM SKC
FM220400 VRB03KT P6SM SKC

Related Locations
Nearby:
Farthest:FTU: 11197 mi / 18020 km
Tolagnaro [Maurillac (Fort Dauphin)], MG

Find:

   beyond  
but within

Other Information
Maps:
NOTAMs:
Links:
Sources:

  
flag of United States
flag of California
  

Airport Diagram

Airport diagram for TKF

Airport diagram PDF

Sectional Chart

Flight Planning
at skyvector.com

Satellite Image

Google Maps Satellite View

 

Copyright © 2004-2014 Karl L. Swartz. All rights reserved.
The Great Circle Mapper name and logo are trademarks of the Great Circle Mapper.
All other trademarks mentioned herein belong to their respective owners.
Please see credits for attibutions and further copyright information.

  Follow gcmap on Facebook Follow gcmap on Twitter

hCard Microformat

Geo Microformat